Weather History for Barcelona, Venezuela

Change the Weather History Date:

Saturday, November 30, 2013

  Actual Average Record
Temperature  
Mean Temperature 82 °F -  
Max Temperature 93 °F 89 °F 93 °F (2003)
Min Temperature 70 °F 70 °F 71 °F (2008)
Cooling Degree Days 16    
Growing Degree Days 32 (Base 50)    
Moisture  
Dew Point 74 °F    
Average Humidity 81    
Maximum Humidity 100    
Minimum Humidity 46    
Precipitation  
Precipitation 0.00 in 0.03 in - ()
Sea Level Pressure  
Sea Level Pressure 29.84 in    
Wind  
Wind Speed 0 mph ()    
Max Wind Speed 12 mph    
Max Gust Speed -    
Visibility 6.5 miles    
Events      
Averages and records for this station are not official NWS values.
T = Trace of Precipitation, MM = Missing Value Source: Averaged Metar Reports

Daily Weather History Graph

Daily Weather History Graph

Search for Another Location

Airport:

Trip Planner

Search our weather history database for the weather conditions in past years. The results will help you decide how hot, cold, wet, or windy it might be!

Date:

Astronomy

Nov. 30, 2013 Rise Set
Actual Time 5:50 AM VET 5:24 PM VET
Civil Twilight 5:27 AM VET 5:47 PM VET
Nautical Twilight 5:01 AM VET 6:13 PM VET
Astronomical Twilight 4:35 AM VET 6:39 PM VET
Moon 3:20 AM VET (11/30) 3:26 PM VET (11/30)
Length of Visible Light 12h 20m
Length of Day
11h 34m
Waning Crescent, 7% of the Moon is Illuminated
Nov 30
Waning Crescent
Dec 2
New
Dec 9
First Quarter
Dec 17
Full
Dec 25
Last Quarter

Hourly Weather History & Observations

Time (VET) Temp. Heat Index Dew Point Humidity Pressure Visibility Wind Dir Wind Speed Gust Speed Precip Events Conditions
12:30 AM 78.8 °F - 77.0 °F 94% 29.80 in 6.2 mi Calm Calm - N/A   Partly Cloudy
1:30 AM 78.8 °F - 77.0 °F 94% 29.80 in 6.2 mi Calm Calm - N/A   Partly Cloudy
2:30 AM 77.0 °F - 73.4 °F 89% 29.80 in 6.2 mi Calm Calm - N/A   Partly Cloudy
3:30 AM 77.0 °F - 73.4 °F 89% 29.77 in 6.2 mi Calm Calm - N/A   Partly Cloudy
4:30 AM 75.2 °F - 73.4 °F 94% 29.77 in 6.2 mi Calm Calm - N/A   Partly Cloudy
5:30 AM 75.2 °F - 73.4 °F 94% 29.80 in 6.2 mi Calm Calm - N/A   Partly Cloudy
6:30 AM 71.6 °F - 69.8 °F 94% 29.89 in 6.2 mi Calm Calm - N/A   Partly Cloudy
7:30 AM 76 °F - 74 °F 93% 29.97 in 12 mi Calm Calm - -   Scattered Clouds
7:30 AM 75.2 °F - 75.2 °F 100% 29.89 in 6.2 mi Calm Calm - N/A   Partly Cloudy
8:30 AM 80.6 °F 86.2 °F 75.2 °F 84% 29.89 in 6.2 mi Calm Calm - N/A   Partly Cloudy
9:30 AM 84.2 °F 92.3 °F 75.2 °F 74% 29.89 in 6.2 mi Calm Calm - N/A   Partly Cloudy
10:30 AM 86.0 °F 93.4 °F 73.4 °F 66% 29.92 in 6.2 mi Calm Calm - N/A   Partly Cloudy
2:30 PM 93.2 °F 98.8 °F 69.8 °F 46% 29.86 in 6.2 mi North 11.5 mph - N/A   Partly Cloudy
3:30 PM 87.8 °F 93.8 °F 71.6 °F 58% 29.80 in - North - - N/A   Partly Cloudy
4:30 PM 87.8 °F 92.6 °F 69.8 °F 55% 29.80 in 6.2 mi Calm Calm - N/A   Scattered Clouds
5:30 PM 86.0 °F 91.8 °F 71.6 °F 62% 29.80 in 6.2 mi Calm Calm - N/A   Scattered Clouds
6:30 PM 84.2 °F 92.3 °F 75.2 °F 74% 29.83 in 6.2 mi Calm Calm - N/A   Scattered Clouds
8:30 PM 80.6 °F 85.4 °F 73.4 °F 79% 29.83 in 6.2 mi Calm Calm - N/A   Partly Cloudy
9:30 PM 80.6 °F 86.2 °F 75.2 °F 84% 29.86 in 6.2 mi Calm Calm - N/A   Partly Cloudy
10:30 PM 78.8 °F - 75.2 °F 89% 29.80 in 6.2 mi Calm Calm - N/A   Partly Cloudy
11:30 PM 77.0 °F - 73.4 °F 89% 29.80 in 6.2 mi Calm Calm - N/A   Partly Cloudy